Terminal Aerodrome Forecast
Issued by NWS

Home | Current Version | Previous Version | Text Only | Print | Product List | Glossary On
Versions: 1 2 3 4 5 6 7 8 9 10 11 12 13 14 15 16 17 18 19 20 21 22 23 24 25 26 27 28 29 30 31 32 33 34 35 36 37 38 39
000
FTUS45 KSLC 012331
TAFSGU
TAF
KSGU 012331Z 0200/0224 36010G18KT P6SM SCT110 BKN200
     FM020300 VRB04KT P6SM SCT200
     FM022100 25011G20KT P6SM SCT130 SCT200
      AMD LTD TO CLD VIS AND WIND=

USA.gov is the U.S. government's official web portal to all federal, state and local government web resources and services.